GW4712 Weather Reports


Display with metric or nautical units.
time (UTC)temp
F
wind
direction
speed
MPH
gust
MPH
rain 1hr
in
rain 24hr
in
rain mn
in
humidity
%
barometer
mb
20260505174936 75 311 4.0 16.0 0.00 0.00 0.00 43 1010.5
20260505174433 76 282 5.0 14.0 0.00 0.00 0.00 43 1010.7
20260505173929 75 325 8.0 11.0 0.00 0.00 0.00 45 1010.7
20260505173426 76 244 5.0 10.0 0.00 0.00 0.00 42 1010.5
20260505172923 76 241 4.0 13.0 0.00 0.00 0.00 44 1010.7
20260505172421 76 321 14.0 19.0 0.00 0.00 0.00 43 1010.7
20260505171920 76 255 12.0 14.0 0.00 0.00 0.00 42 1011.2
20260505171417 76 314 8.0 13.0 0.00 0.00 0.00 43 1011.1
20260505170914 76 187 6.0 8.0 0.00 0.00 0.00 43 1011.1
20260505170411 76 243 2.0 9.0 0.00 0.00 0.00 44 1010.9
20260505165906 76 203 9.0 18.0 0.00 0.00 0.00 44 1011.4
20260505165402 76 183 4.0 10.0 0.00 0.00 0.00 43 1010.9
20260505164857 76 214 5.0 9.0 0.00 0.00 0.00 45 1011.3
20260505164354 76 310 4.0 10.0 0.00 0.00 0.00 43 1011.5
20260505163853 75 255 4.0 11.0 0.00 0.00 0.00 43 1011.4
20260505163351 75 254 4.0 14.0 0.00 0.00 0.00 46 1011.4
20260505162850 75 259 6.0 8.0 0.00 0.00 0.00 45 1011.4
20260505162345 75 276 8.0 9.0 0.00 0.00 0.00 45 1011.4
20260505161843 74 301 4.0 14.0 0.00 0.00 0.00 47 1011.3
20260505161339 74 272 5.0 7.0 0.00 0.00 0.00 44 1011.5
20260505160837 74 257 9.0 11.0 0.00 0.00 0.00 43 1011.8
20260505160335 74 313 14.0 18.0 0.00 0.00 0.00 46 1011.4
20260505153314 73 317 9.0 19.0 0.00 0.00 0.00 48 1011.8
20260505152811 74 309 14.0 21.0 0.00 0.00 0.00 47 1011.7
20260505152308 73 248 8.0 14.0 0.00 0.00 0.00 47 1012.1
20260505151807 73 241 8.0 11.0 0.00 0.00 0.00 47 1011.9
20260505151305 73 264 6.0 9.0 0.00 0.00 0.00 50 1011.8
20260505150802 73 298 8.0 18.0 0.00 0.00 0.00 50 1011.4
20260505150259 73 174 6.0 9.0 0.00 0.00 0.00 48 1011.6
20260505140229 71 263 4.0 7.0 0.00 0.00 0.00 50 1012.0
20260505130153 68 220 3.0 6.0 0.00 0.00 0.00 55 1011.9
20260505124642 67 247 3.0 3.0 0.00 0.00 0.00 55 1012.0
20260505124139 67 240 3.0 4.0 0.00 0.00 0.00 55 1012.0
20260505123635 67 170 3.0 4.0 0.00 0.00 0.00 56 1011.9
20260505123132 67 268 1.0 2.0 0.00 0.00 0.00 56 1012.0
20260505122628 66 149 1.0 3.0 0.00 0.00 0.00 57 1012.0
20260505122126 66 164 1.0 3.0 0.00 0.00 0.00 57 1012.0
20260505121622 66 313 0.0 1.0 0.00 0.00 0.00 58 1012.1
20260505121119 65 262 1.0 1.0 0.00 0.00 0.00 60 1011.8
20260505120615 64 246 0.0 1.0 0.00 0.00 0.00 62 1011.9
20260505120111 64 177 0.0 2.0 0.00 0.00 0.00 66 1012.2
20260505115605 64 110 1.0 3.0 0.00 0.00 0.00 61 1011.9
20260505115103 65 261 2.0 4.0 0.00 0.00 0.00 61 1012.2
20260505114600 64 233 1.0 2.0 0.00 0.00 0.00 64 1012.0
20260505114056 63 99 1.0 2.0 0.00 0.00 0.00 66 1011.9
20260505113553 64 224 0.0 1.0 0.00 0.00 0.00 65 1012.0
20260505113050 64 275 0.0 2.0 0.00 0.00 0.00 61 1011.7
20260505112546 63 74 0.0 3.0 0.00 0.00 0.00 61 1011.7
20260505112045 63 338 0.0 1.0 0.00 0.00 0.00 64 1011.9
20260505111543 62 279 0.0 0.0 0.00 0.00 0.00 66 1012.0
20260505111040 62 268 1.0 1.0 0.00 0.00 0.00 67 1012.0
20260505110536 62 113 1.0 2.0 0.00 0.00 0.00 71 1011.7
20260505102009 60 69 0.0 2.0 0.00 0.00 0.00 69 1011.6
20260505101507 61 198 1.0 2.0 0.00 0.00 0.00 69 1011.3
20260505101003 61 295 0.0 0.0 0.00 0.00 0.00 69 1011.4
20260505100500 59 313 0.0 2.0 0.00 0.00 0.00 71 1011.3
20260505095957 58 187 0.0 0.0 0.00 0.00 0.00 77 1011.1
20260505095453 58 257 1.0 1.0 0.00 0.00 0.00 77 1011.2
20260505094949 58 233 0.0 1.0 0.00 0.00 0.00 79 1010.9
20260505094446 58 100 1.0 2.0 0.00 0.00 0.00 74 1010.8
20260505093943 58 68 0.0 6.0 0.00 0.00 0.00 77 1010.8
20260505093439 57 165 0.0 1.0 0.00 0.00 0.00 79 1010.7
20260505092937 57 231 2.0 3.0 0.00 0.00 0.00 72 1010.8
20260505092434 58 169 0.0 0.0 0.00 0.00 0.00 78 1010.7
20260505091932 58 170 1.0 2.0 0.00 0.00 0.00 76 1010.6
20260505091429 58 237 1.0 2.0 0.00 0.00 0.00 78 1010.5
20260505090927 59 306 1.0 1.0 0.00 0.00 0.00 75 1010.6
20260505090425 60 151 0.0 0.0 0.00 0.00 0.00 72 1010.5
20260505085922 61 260 0.0 0.0 0.00 0.00 0.00 69 1010.4
20260505085420 62 187 2.0 2.0 0.00 0.00 0.00 67 1010.5
20260505084918 63 183 2.0 4.0 0.00 0.00 0.00 65 1010.6
20260505084416 61 249 0.0 7.0 0.00 0.00 0.00 63 1010.3
20260505083914 59 162 0.0 1.0 0.00 0.00 0.00 72 1010.4
20260505083411 59 162 2.0 2.0 0.00 0.00 0.00 74 1010.4
20260505082907 59 229 1.0 2.0 0.00 0.00 0.00 74 1010.3
20260505082403 61 340 0.0 2.0 0.00 0.00 0.00 70 1010.3
20260505081900 63 322 0.0 2.0 0.00 0.00 0.00 65 1010.1
20260505081356 63 251 1.0 2.0 0.00 0.00 0.00 62 1010.1
20260505080853 62 311 1.0 3.0 0.00 0.00 0.00 66 1010.1
20260505080349 60 150 0.0 3.0 0.00 0.00 0.00 75 1010.2
20260505075845 58 344 0.0 1.0 0.00 0.00 0.00 76 1009.9
20260505075342 60 264 2.0 3.0 0.00 0.00 0.00 74 1009.9
20260505074839 60 210 1.0 7.0 0.00 0.00 0.00 75 1010.0
20260505074336 56 222 1.0 7.0 0.00 0.00 0.00 76 1010.0
20260505073833 55 311 0.0 0.0 0.00 0.00 0.00 87 1009.8
20260505073331 54 312 0.0 0.0 0.00 0.00 0.00 86 1010.0
20260505072828 55 312 1.0 3.0 0.00 0.00 0.00 87 1010.1
20260505072324 55 294 0.0 0.0 0.00 0.00 0.00 86 1010.1
20260505071820 55 299 0.0 0.0 0.00 0.00 0.00 85 1010.2
20260505071317 55 296 0.0 0.0 0.00 0.00 0.00 86 1010.1
20260505070815 54 2 0.0 0.0 0.00 0.00 0.00 88 1009.9
20260505070311 53 233 0.0 0.0 0.00 0.00 0.00 93 1010.0
20260505065806 52 304 0.0 0.0 0.00 0.00 0.00 95 1009.8
20260505065304 52 300 0.0 0.0 0.00 0.00 0.00 95 1010.0
20260505064800 52 256 0.0 2.0 0.00 0.00 0.00 95 1009.9
20260505064258 51 290 0.0 1.0 0.00 0.00 0.00 96 1009.9
20260505063755 51 269 0.0 1.0 0.00 0.00 0.00 96 1010.1
20260505063252 52 268 0.0 0.0 0.00 0.00 0.00 96 1010.2
20260505062748 51 268 0.0 0.0 0.00 0.00 0.00 96 1010.1
20260505062246 51 23 0.0 0.0 0.00 0.00 0.00 97 1010.1
20260505061742 51 23 1.0 1.0 0.00 0.00 0.00 97 1010.1
20260505061240 51 23 0.0 0.0 0.00 0.00 0.00 97 1010.1
20260505060737 51 23 1.0 2.0 0.00 0.00 0.00 97 1010.1
20260505060235 51 267 0.0 1.0 0.00 0.00 0.00 97 1010.3
20260505055729 51 261 0.0 1.0 0.00 0.00 0.00 97 1010.3
20260505055226 51 342 1.0 2.0 0.00 0.00 0.00 96 1010.3
20260505054724 51 203 1.0 1.0 0.00 0.00 0.00 97 1010.2
20260505054216 52 204 1.0 1.0 0.00 0.00 0.00 97 1010.3
20260505053714 51 203 0.0 2.0 0.00 0.00 0.00 97 1010.3
20260505053210 51 203 0.0 0.0 0.00 0.00 0.00 97 1010.3
20260505052708 51 203 0.0 0.0 0.00 0.00 0.00 97 1010.2
20260505052204 51 203 0.0 0.0 0.00 0.00 0.00 97 1010.3
20260505051701 51 203 0.0 0.0 0.00 0.00 0.00 97 1010.1
20260505051159 51 203 0.0 0.0 0.00 0.00 0.00 97 1010.2
20260505050656 51 203 0.0 0.0 0.00 0.00 0.00 97 1010.0
20260505050156 51 203 0.0 0.0 0.00 0.00 0.00 97 1010.1
20260505041625 51 203 0.0 0.0 0.00 0.00 0.00 97 1009.7
20260505041123 51 203 0.0 0.0 0.00 0.00 0.00 97 1009.7
20260505040619 51 203 0.0 0.0 0.00 0.00 0.00 97 1009.8
20260505040117 51 203 0.0 0.0 0.00 0.00 0.00 96 1009.8
20260505035613 51 203 0.0 1.0 0.00 0.00 0.00 96 1009.6
20260505035109 51 203 0.0 0.0 0.00 0.00 0.00 96 1009.7
20260505034606 51 203 0.0 0.0 0.00 0.00 0.00 96 1009.6
20260505034103 51 203 0.0 0.0 0.00 0.00 0.00 96 1009.5
20260505033559 51 203 0.0 0.0 0.00 0.00 0.00 96 1009.7
20260505033058 51 203 0.0 0.0 0.00 0.00 0.00 96 1009.8
20260505032555 51 203 0.0 0.0 0.00 0.00 0.00 96 1009.8
20260505032051 51 203 0.0 0.0 0.00 0.00 0.00 96 1009.6
20260505031549 52 203 0.0 0.0 0.00 0.00 0.00 96 1009.6
20260505031045 52 203 0.0 0.0 0.00 0.00 0.00 95 1009.6
20260505030542 52 203 0.0 0.0 0.00 0.00 0.00 95 1009.6
20260505030038 52 203 0.0 0.0 0.00 0.00 0.00 96 1009.7
20260505025533 52 203 0.0 0.0 0.00 0.00 0.00 95 1009.8
20260505025033 52 203 0.0 0.0 0.00 0.00 0.00 95 1009.8
20260505024529 52 203 0.0 0.0 0.00 0.00 0.00 95 1009.8
20260505024026 52 203 0.0 0.0 0.00 0.00 0.00 95 1009.7
20260505023523 52 203 0.0 0.0 0.00 0.00 0.00 95 1009.8
20260505023021 53 203 0.0 0.0 0.00 0.00 0.00 95 1009.6
20260505022519 53 203 0.0 0.0 0.00 0.00 0.00 94 1009.4
20260505022016 53 203 0.0 1.0 0.00 0.00 0.00 94 1009.6
20260505021513 53 203 0.0 0.0 0.00 0.00 0.00 93 1009.6
20260505021009 53 203 0.0 0.0 0.00 0.00 0.00 93 1009.6
20260505020509 53 203 0.0 0.0 0.00 0.00 0.00 93 1009.6
20260505020006 53 203 0.0 0.0 0.00 0.00 0.00 93 1009.6
20260505015503 54 203 0.0 0.0 0.00 0.00 0.00 92 1009.6
20260505015000 54 203 0.0 0.0 0.00 0.00 0.00 92 1009.6
20260505014457 54 203 0.0 0.0 0.00 0.00 0.00 91 1009.6
20260505013954 55 203 0.0 0.0 0.00 0.00 0.00 91 1009.6
20260505013451 55 203 0.0 0.0 0.00 0.00 0.00 90 1009.4
20260505012948 55 203 0.0 0.0 0.00 0.00 0.00 88 1009.6
20260505012446 55 203 0.0 0.0 0.00 0.00 0.00 88 1009.7
20260505011943 56 203 0.0 0.0 0.00 0.00 0.00 87 1009.6
20260505011439 56 203 0.0 1.0 0.00 0.00 0.00 87 1009.6
20260505010936 56 203 0.0 1.0 0.00 0.00 0.00 86 1009.6
20260505010432 57 203 0.0 0.0 0.00 0.00 0.00 87 1009.5
20260505005928 57 203 0.0 0.0 0.00 0.00 0.00 86 1009.4
20260505005425 57 203 1.0 1.0 0.00 0.00 0.00 85 1009.5
20260505004922 58 203 0.0 0.0 0.00 0.00 0.00 85 1009.5
20260505004418 58 203 0.0 0.0 0.00 0.00 0.00 85 1009.7
20260505003915 59 203 0.0 0.0 0.00 0.00 0.00 84 1009.7
20260505003413 60 203 1.0 1.0 0.00 0.00 0.00 81 1009.8
20260505002909 60 203 0.0 0.0 0.00 0.00 0.00 80 1009.7
20260505002405 61 203 1.0 1.0 0.00 0.00 0.00 78 1009.7
20260505001904 62 203 0.0 0.0 0.00 0.00 0.00 78 1009.7
20260505001401 62 203 0.0 0.0 0.00 0.00 0.00 75 1009.6
20260505000858 63 203 0.0 0.0 0.00 0.00 0.00 75 1009.7
20260505000358 64 203 0.0 1.0 0.00 0.00 0.00 72 1009.7
20260504235852 70 250 1.0 1.0 0.00 0.00 0.00 60 1009.7
20260504235349 70 250 1.0 1.0 0.00 0.00 0.00 60 1009.9
20260504234845 70 302 2.0 2.0 0.00 0.00 0.00 52 1009.7
20260504234343 71 254 1.0 2.0 0.00 0.00 0.00 51 1009.6
20260504233840 71 324 3.0 4.0 0.00 0.00 0.00 50 1009.8
20260504233335 72 255 2.0 2.0 0.00 0.00 0.00 49 1009.9
20260504232833 72 236 1.0 2.0 0.00 0.00 0.00 49 1009.8
20260504232330 72 286 0.0 0.0 0.00 0.00 0.00 49 1009.9
20260504231826 71 248 2.0 2.0 0.00 0.00 0.00 49 1010.0
20260504231323 71 306 4.0 6.0 0.00 0.00 0.00 50 1009.9
20260504230819 71 313 2.0 2.0 0.00 0.00 0.00 52 1009.9
20260504230317 71 309 1.0 3.0 0.00 0.00 0.00 50 1009.9
20260504225816 71 260 2.0 6.0 0.00 0.00 0.00 50 1010.0
20260504225311 71 301 4.0 4.0 0.00 0.00 0.00 47 1009.9
20260504224809 71 96 2.0 6.0 0.00 0.00 0.00 48 1010.0
20260504224306 71 314 5.0 8.0 0.00 0.00 0.00 50 1010.1
20260504223802 71 256 5.0 6.0 0.00 0.00 0.00 48 1010.0
20260504223258 71 271 4.0 8.0 0.00 0.00 0.00 50 1009.9
20260504222755 71 300 3.0 11.0 0.00 0.00 0.00 48 1010.2
20260504222252 71 281 4.0 6.0 0.00 0.00 0.00 48 1009.7
20260504221750 72 276 1.0 3.0 0.00 0.00 0.00 48 1009.6
20260504221247 72 198 2.0 13.0 0.00 0.00 0.00 49 1009.8
20260504220743 72 268 4.0 10.0 0.00 0.00 0.00 47 1009.8
20260504220240 72 247 2.0 6.0 0.00 0.00 0.00 48 1009.9
20260504215737 72 313 6.0 9.0 0.00 0.00 0.00 50 1009.9
20260504215234 72 279 3.0 6.0 0.00 0.00 0.00 49 1009.9
20260504214730 72 243 5.0 9.0 0.00 0.00 0.00 47 1010.0
20260504214226 71 257 4.0 8.0 0.00 0.00 0.00 48 1010.0
20260504213723 72 272 4.0 11.0 0.00 0.00 0.00 47 1010.1
20260504213220 72 301 3.0 7.0 0.00 0.00 0.00 46 1010.0
20260504212717 72 246 8.0 11.0 0.00 0.00 0.00 46 1010.0
20260504212214 73 255 4.0 8.0 0.00 0.00 0.00 46 1009.9
20260504211711 74 225 5.0 10.0 0.00 0.00 0.00 45 1009.8
20260504211207 74 313 6.0 9.0 0.00 0.00 0.00 44 1009.6
20260504210704 74 317 2.0 10.0 0.00 0.00 0.00 46 1009.4
20260504210201 75 297 6.0 8.0 0.00 0.00 0.00 45 1009.3
20260504205658 75 240 4.0 4.0 0.00 0.00 0.00 44 1009.5
20260504205155 73 247 4.0 9.0 0.00 0.00 0.00 47 1009.6
20260504204654 73 315 5.0 8.0 0.00 0.00 0.00 47 1009.7
20260504204153 73 313 5.0 10.0 0.00 0.00 0.00 45 1009.8
20260504203651 73 294 6.0 8.0 0.00 0.00 0.00 45 1009.8
20260504203148 73 181 2.0 4.0 0.00 0.00 0.00 46 1009.6
20260504202643 73 240 1.0 7.0 0.00 0.00 0.00 47 1009.7
20260504202140 72 211 2.0 3.0 0.00 0.00 0.00 50 1009.9
20260504201637 71 235 5.0 10.0 0.00 0.00 0.00 49 1009.9
20260504201135 71 323 2.0 6.0 0.00 0.00 0.00 48 1010.0
20260504200632 71 310 4.0 7.0 0.00 0.00 0.00 48 1010.1
20260504200128 71 261 3.0 6.0 0.00 0.00 0.00 49 1010.2
20260504195624 71 280 3.0 13.0 0.00 0.00 0.00 49 1010.3
20260504195121 72 314 5.0 7.0 0.00 0.00 0.00 48 1010.1
20260504194618 71 234 5.0 7.0 0.00 0.00 0.00 47 1010.1
20260504194114 72 258 3.0 7.0 0.00 0.00 0.00 48 1010.2
20260504193610 72 312 8.0 14.0 0.00 0.00 0.00 49 1010.2
20260504193109 73 314 4.0 10.0 0.00 0.00 0.00 48 1010.3
20260504192606 72 257 4.0 8.0 0.00 0.00 0.00 46 1010.2
20260504192104 72 264 8.0 13.0 0.00 0.00 0.00 47 1010.5
20260504191603 72 274 7.0 9.0 0.00 0.00 0.00 50 1010.4
20260504191058 71 166 1.0 8.0 0.00 0.00 0.00 46 1010.6
20260504190554 71 299 7.0 10.0 0.00 0.00 0.00 47 1010.4
20260504190050 71 155 2.0 6.0 0.00 0.00 0.00 45 1010.3
20260504185548 72 194 7.0 14.0 0.00 0.00 0.00 45 1010.3
20260504185044 72 221 2.0 10.0 0.00 0.00 0.00 43 1010.4
20260504184539 72 311 4.0 14.0 0.00 0.00 0.00 47 1010.3
20260504184035 71 311 4.0 13.0 0.00 0.00 0.00 47 1010.2
20260504183532 71 2 3.0 9.0 0.00 0.00 0.00 48 1010.3
20260504183030 71 273 5.0 10.0 0.00 0.00 0.00 48 1010.6
20260504182526 71 315 14.0 18.0 0.00 0.00 0.00 46 1010.4
20260504182024 71 292 7.0 17.0 0.00 0.00 0.00 50 1010.5
20260504181521 71 187 4.0 7.0 0.00 0.00 0.00 48 1010.5
20260504181020 70 256 3.0 11.0 0.00 0.00 0.00 46 1010.5
20260504180518 71 309 7.0 23.0 0.00 0.00 0.00 48 1010.7
20260504180017 70 187 5.0 8.0 0.00 0.00 0.00 48 1010.9
20260504175513 69 304 11.0 14.0 0.00 0.00 0.00 50 1010.8